Hourly Data Report for October 20, 2015

All times are specified in Local Standard Time (LST). Add 1 hour to adjust for Daylight Saving Time where and when it is observed.

KUGLUKTUK A
NUNAVUT

67°49'00.000" N
115°08'38.000" W
22.60 m
2300903
71938
YCO

Download Data

Hourly Data (October 2015)
Hourly Data Report for October 20, 2015
Temp Definition
°C
Dew Point Temp Definition
°C
Rel Hum Definition
%
Wind Dir Definition
10's deg

Wind Spd Definition
km/h
Visibility Definition
km
Stn Press Definition
kPa
Hmdx Definition


Wind Chill Definition


Weather Definition


TIME
00:00 Legend Double Dagger -3.1 -5.3 85 21 28 24.1 100.78   -10 Snow,Blowing Snow
01:00 Legend Double Dagger -3.2 -4.8 89 22 26 19.3 100.79   -10 Snow,Blowing Snow
02:00 Legend Double Dagger -3.0 -4.3 91 22 26 19.3 100.78   -10 Snow,Blowing Snow
03:00 Legend Double Dagger -2.5 -3.6 92 24 17 19.3 100.81   -8 Snow,Blowing Snow
04:00 Legend Double Dagger -2.0 -2.7 95 25 23 9.7 100.85   -8 Snow,Blowing Snow
05:00 Legend Double Dagger -1.8 -2.5 95 27 18 12.9 100.89   -7 Snow
06:00 Legend Double Dagger -1.9 -3.0 92 28 17 19.3 100.96   -7 Snow
07:00 Legend Double Dagger -1.6 -3.3 88 30 23 24.1 101.03   -8 LegendNANA
08:00 Legend Double Dagger -2.5 -4.7 85 34 35 24.1 101.12   -10 Blowing Snow
09:00 Legend Double Dagger -3.6 -5.8 85 35 35 24.1 101.23   -12 Blowing Snow
10:00 Legend Double Dagger -4.1 -6.6 83 35 34 24.1 101.33   -12 Blowing Snow
11:00 Legend Double Dagger -5.5 -7.6 85 35 35 24.1 101.44   -14 Blowing Snow
12:00 Legend Double Dagger -5.4 -8.2 81 35 32 24.1 101.52   -14 Blowing Snow
13:00 Legend Double Dagger -5.6 -8.2 82 36 26 40.2 101.61   -13 Blowing Snow
14:00 Legend Double Dagger -5.9 -9.1 78 35 24 24.1 101.69   -13 Mostly Cloudy
15:00 Legend Double Dagger -6.2 -9.4 78 36 16 24.1 101.74   -12 LegendNANA
16:00 Legend Double Dagger -6.6 -9.2 82 1 17 24.1 101.78   -13 LegendNANA
17:00 Legend Double Dagger -6.6 -9.3 81 2 16 24.1 101.84   -13 Cloudy
18:00 Legend Double Dagger -6.7 -9.3 82 1 13 24.1 101.86   -12 LegendNANA
19:00 Legend Double Dagger -6.6 -9.8 78 4 10 19.3 101.90   -11 Snow
20:00 Legend Double Dagger -6.6 -9.5 80 4 11 16.1 101.91   -12 Snow Grains
21:00 Legend Double Dagger -6.6 -9.5 80 3 13 16.1 101.93   -12 Snow Grains
22:00 Legend Double Dagger -6.7 -9.4 81 11 13 24.1 101.95   -12 Snow Grains
23:00 Legend Double Dagger -6.8 -9.5 81 9 8 24.1 101.97   -11 Snow Grains

Notes on Data Quality.

Legend

  • E = Estimated
  • M = Missing
  • NA = Not Available
  • ‡ = Partner data that is not subject to review by the National Climate Archives
Date modified: